Location: Lombard
(41.8800°N, 88.0080°W)
Time: 00:20:20
(UTC-05:00)

A-11 Canister half - Pass Details

Date: 06 February 2023
Orbit: 1512 x 1687 km, 47.2° (Epoch: 20 March)

Event Time Altitude Azimuth Distance (km) Brightness Sun altitude
Rises 07:03:37 0° 172° (S) 4,897 12.1 -0.1°
Reaches altitude 10° 07:09:03 10° 149° (SSE) 3,885 12.1 0.9°
Maximum altitude 07:13:20 14° 123° (ESE) 3,572 12.9 1.6°
Drops below altitude 10° 07:17:34 10° 96° (E) 3,836 12.8 2.3°
Sets 07:22:48 0° 73° (ENE) 4,786 12.5 3.2°
